FW0069 Weather Reports


Display with metric or nautical units.
time (UTC)temp
F
wind
direction
speed
MPH
gust
MPH
rain 1hr
in
rain 24hr
in
rain mn
in
humidity
%
barometer
mb
20260507164022 80 360 5.0 7.0 0.00 0.00 0.00 14 1018.3
20260507163022 79 360 3.0 6.0 0.00 0.00 0.00 15 1018.3
20260507162522 79 360 0.0 6.0 0.00 0.00 0.00 15 1018.3
20260507162022 79 360 2.0 6.0 0.00 0.00 0.00 16 1018.4
20260507161522 79 174 2.0 4.0 0.00 0.00 0.00 15 1018.4
20260507161022 79 360 2.0 4.0 0.00 0.00 0.00 16 1018.4
20260507160523 78 360 2.0 4.0 0.00 0.00 0.00 17 1018.3
20260507160022 78 360 0.0 3.0 0.00 0.00 0.00 17 1018.3
20260507155522 78 217 0.0 4.0 0.00 0.00 0.00 16 1018.5
20260507155022 77 220 0.0 4.0 0.00 0.00 0.00 17 1018.4
20260507154522 77 238 3.0 4.0 0.00 0.00 0.00 17 1018.4
20260507153523 76 360 1.0 5.0 0.00 0.00 0.00 18 1018.6
20260507153021 75 234 3.0 5.0 0.00 0.00 0.00 20 1018.5
20260507152522 75 360 3.0 6.0 0.00 0.00 0.00 20 1018.6
20260507152021 74 271 3.0 6.0 0.00 0.00 0.00 20 1018.7
20260507151522 74 360 5.0 6.0 0.00 0.00 0.00 20 1018.7
20260507151022 74 360 6.0 6.0 0.00 0.00 0.00 21 1018.8
20260507150522 73 360 4.0 6.0 0.00 0.00 0.00 21 1018.4
20260507145021 71 360 4.0 7.0 0.00 0.00 0.00 22 1018.7
20260507144521 71 360 4.0 7.0 0.00 0.00 0.00 22 1018.8
20260507144022 70 360 3.0 5.0 0.00 0.00 0.00 23 1018.8
20260507143522 69 294 3.0 5.0 0.00 0.00 0.00 24 1018.6
20260507143022 68 360 2.0 5.0 0.00 0.00 0.00 25 1018.6
20260507142522 67 286 1.0 4.0 0.00 0.00 0.00 26 1018.5
20260507142022 66 360 2.0 4.0 0.00 0.00 0.00 26 1018.5
20260507141522 65 286 4.0 5.0 0.00 0.00 0.00 27 1018.2
20260507140522 62 278 1.0 6.0 0.00 0.00 0.00 29 1017.9
20260507140023 62 286 2.0 6.0 0.00 0.00 0.00 29 1017.9
20260507135522 62 274 1.0 6.0 0.00 0.00 0.00 29 1018.1
20260507135021 61 275 5.0 6.0 0.00 0.00 0.00 29 1017.9
20260507134522 61 334 5.0 6.0 0.00 0.00 0.00 29 1018.0
20260507133523 61 360 4.0 7.0 0.00 0.00 0.00 29 1017.9
20260507133023 61 360 3.0 7.0 0.00 0.00 0.00 29 1017.9
20260507132521 61 279 4.0 6.0 0.00 0.00 0.00 29 1017.9
20260507132022 61 279 1.0 6.0 0.00 0.00 0.00 29 1017.8
20260507131521 61 267 2.0 5.0 0.00 0.00 0.00 29 1017.7
20260507131022 61 275 2.0 6.0 0.00 0.00 0.00 29 1017.7
20260507130521 61 360 3.0 6.0 0.00 0.00 0.00 29 1017.7
20260507130022 61 360 4.0 6.0 0.00 0.00 0.00 28 1017.6
20260507125521 62 360 4.0 6.0 0.00 0.00 0.00 28 1017.9
20260507125022 62 284 2.0 5.0 0.00 0.00 0.00 28 1017.9
20260507124522 62 291 2.0 6.0 0.00 0.00 0.00 27 1017.9
20260507124022 62 292 3.0 6.0 0.00 0.00 0.00 28 1017.8
20260507123521 62 360 2.0 7.0 0.00 0.00 0.00 28 1017.8
20260507123021 62 331 2.0 7.0 0.00 0.00 0.00 27 1017.8
20260507122522 62 360 4.0 6.0 0.00 0.00 0.00 27 1017.7
20260507122022 62 256 4.0 6.0 0.00 0.00 0.00 26 1017.7
20260507121521 62 360 4.0 6.0 0.00 0.00 0.00 26 1017.8
20260507121022 62 360 3.0 6.0 0.00 0.00 0.00 25 1017.7
20260507120521 62 360 2.0 4.0 0.00 0.00 0.00 24 1017.8
20260507120021 62 360 2.0 4.0 0.00 0.00 0.00 24 1017.8
20260507115022 62 360 0.0 5.0 0.00 0.00 0.00 24 1017.8
20260507114521 62 360 1.0 5.0 0.00 0.00 0.00 24 1017.8
20260507114021 62 360 4.0 4.0 0.00 0.00 0.00 25 1017.8
20260507113521 62 360 1.0 3.0 0.00 0.00 0.00 25 1017.8
20260507113023 62 360 2.0 3.0 0.00 0.00 0.00 25 1017.8
20260507112521 62 360 1.0 2.0 0.00 0.00 0.00 26 1017.8
20260507112021 63 360 0.0 3.0 0.00 0.00 0.00 26 1017.8
20260507111522 63 360 1.0 3.0 0.00 0.00 0.00 25 1017.7
20260507111022 63 360 2.0 4.0 0.00 0.00 0.00 26 1017.7
20260507110021 63 360 1.0 4.0 0.00 0.00 0.00 26 1017.7
20260507105021 63 360 1.0 3.0 0.00 0.00 0.00 26 1017.8
20260507104521 63 360 1.0 3.0 0.00 0.00 0.00 26 1017.8
20260507104021 63 267 2.0 3.0 0.00 0.00 0.00 26 1017.7
20260507102521 63 248 2.0 3.0 0.00 0.00 0.00 26 1017.7
20260507102022 63 248 1.0 4.0 0.00 0.00 0.00 26 1017.7
20260507101521 64 360 3.0 4.0 0.00 0.00 0.00 27 1017.8
20260507101022 64 360 2.0 3.0 0.00 0.00 0.00 27 1017.7
20260507100522 64 360 0.0 3.0 0.00 0.00 0.00 27 1017.9
20260507100022 64 360 2.0 3.0 0.00 0.00 0.00 28 1017.8
20260507095522 64 360 1.0 3.0 0.00 0.00 0.00 28 1017.7
20260507095021 64 209 0.0 2.0 0.00 0.00 0.00 29 1017.8
20260507094521 64 360 1.0 2.0 0.00 0.00 0.00 29 1017.6
20260507094023 64 198 0.0 2.0 0.00 0.00 0.00 29 1017.7
20260507093521 65 198 1.0 2.0 0.00 0.00 0.00 29 1017.6
20260507093022 65 198 0.0 2.0 0.00 0.00 0.00 29 1017.7
20260507092521 65 198 0.0 1.0 0.00 0.00 0.00 28 1017.6
20260507092021 65 198 1.0 2.0 0.00 0.00 0.00 28 1017.7
20260507091522 66 198 1.0 2.0 0.00 0.00 0.00 28 1017.9
20260507091021 66 360 2.0 2.0 0.00 0.00 0.00 27 1017.9
20260507090521 67 198 1.0 2.0 0.00 0.00 0.00 27 1017.9
20260507090021 67 198 0.0 2.0 0.00 0.00 0.00 27 1017.9
20260507085522 67 198 2.0 2.0 0.00 0.00 0.00 26 1017.8
20260507085021 68 198 0.0 2.0 0.00 0.00 0.00 26 1017.8
20260507084522 68 198 0.0 3.0 0.00 0.00 0.00 26 1017.8
20260507083522 69 360 1.0 3.0 0.00 0.00 0.00 24 1018.0
20260507083022 69 277 3.0 3.0 0.00 0.00 0.00 24 1017.9
20260507082021 69 265 3.0 4.0 0.00 0.00 0.00 23 1017.8
20260507081021 69 21 2.0 9.0 0.00 0.00 0.00 21 1017.9
20260507080521 68 34 8.0 9.0 0.00 0.00 0.00 21 1017.6
20260507080021 68 360 6.0 6.0 0.00 0.00 0.00 25 1017.8
20260507075521 68 360 3.0 5.0 0.00 0.00 0.00 24 1017.7
20260507075021 68 360 4.0 4.0 0.00 0.00 0.00 24 1017.6
20260507074521 68 289 2.0 3.0 0.00 0.00 0.00 25 1017.7
20260507074021 69 360 0.0 3.0 0.00 0.00 0.00 24 1017.9
20260507073521 69 360 2.0 3.0 0.00 0.00 0.00 24 1017.9
20260507073021 69 360 3.0 3.0 0.00 0.00 0.00 24 1017.9
20260507072521 69 293 1.0 2.0 0.00 0.00 0.00 24 1017.8
20260507072021 69 360 0.0 2.0 0.00 0.00 0.00 24 1017.7
20260507071521 69 293 0.0 4.0 0.00 0.00 0.00 24 1017.8
20260507071021 69 360 1.0 4.0 0.00 0.00 0.00 23 1017.6
20260507070521 69 360 1.0 4.0 0.00 0.00 0.00 23 1017.7
20260507070021 69 360 1.0 4.0 0.00 0.00 0.00 24 1017.6
20260507065521 69 293 2.0 4.0 0.00 0.00 0.00 23 1017.3
20260507065021 69 360 1.0 3.0 0.00 0.00 0.00 23 1017.2
20260507064521 69 360 2.0 4.0 0.00 0.00 0.00 23 1017.2
20260507064021 69 287 2.0 4.0 0.00 0.00 0.00 24 1017.2
20260507063521 69 360 2.0 4.0 0.00 0.00 0.00 24 1017.1
20260507062520 70 360 1.0 4.0 0.00 0.00 0.00 24 1017.2
20260507062021 70 282 2.0 4.0 0.00 0.00 0.00 25 1017.2
20260507061021 70 360 3.0 4.0 0.00 0.00 0.00 26 1017.1
20260507060521 70 236 0.0 2.0 0.00 0.00 0.00 26 1016.9
20260507060020 71 237 1.0 3.0 0.00 0.00 0.00 26 1016.8
20260507055521 71 237 1.0 3.0 0.00 0.00 0.00 25 1016.6
20260507054520 71 215 2.0 2.0 0.00 0.00 0.00 25 1016.5
20260507054020 71 215 0.0 3.0 0.00 0.00 0.00 25 1016.4
20260507053521 72 215 2.0 3.0 0.00 0.00 0.00 25 1016.5
20260507053021 72 360 1.0 3.0 0.00 0.00 0.00 26 1016.5
20260507052521 72 360 2.0 2.0 0.00 0.00 0.00 25 1016.5
20260507052021 72 360 1.0 2.0 0.00 0.00 0.00 25 1016.4
20260507051520 72 360 0.0 1.0 0.00 0.00 0.00 25 1016.4
20260507051020 72 360 1.0 2.0 0.00 0.00 0.00 25 1016.3
20260507050521 73 360 0.0 2.0 0.00 0.00 0.00 25 1016.4
20260507050020 73 360 1.0 2.0 0.00 0.00 0.00 25 1016.3
20260507045020 73 360 1.0 2.0 0.00 0.00 0.00 25 1016.0
20260507044520 74 360 0.0 2.0 0.00 0.00 0.00 25 1016.1
20260507044021 74 360 0.0 0.0 0.00 0.00 0.00 25 1016.0
20260507043021 74 165 0.0 0.0 0.00 0.00 0.00 25 1016.0
20260507042520 75 165 0.0 0.0 0.00 0.00 0.00 24 1016.1
20260507042020 75 360 0.0 0.0 0.00 0.00 0.00 24 1016.0
20260507041521 75 165 0.0 0.0 0.00 0.00 0.00 24 1016.0
20260507041021 76 360 0.0 0.0 0.00 0.00 0.00 24 1016.0
20260507040020 76 360 0.0 1.0 0.00 0.00 0.00 23 1015.8
20260507035521 77 360 0.0 1.0 0.00 0.00 0.00 23 1015.6
20260507035021 77 360 0.0 0.0 0.00 0.00 0.00 22 1015.5
20260507034520 77 360 0.0 0.0 0.00 0.00 0.00 22 1015.5
20260507034020 78 360 0.0 0.0 0.00 0.00 0.00 22 1015.7
20260507033521 78 360 0.0 1.0 0.00 0.00 0.00 22 1015.6
20260507032521 79 360 0.0 0.0 0.00 0.00 0.00 21 1015.4
20260507032020 79 360 0.0 0.0 0.00 0.00 0.00 21 1015.3
20260507031020 80 360 0.0 1.0 0.00 0.00 0.00 20 1015.4
20260507030521 80 360 0.0 1.0 0.00 0.00 0.00 19 1015.2
20260507030021 80 360 0.0 1.0 0.00 0.00 0.00 19 1015.2
20260507025521 81 360 0.0 1.0 0.00 0.00 0.00 19 1014.7
20260507024521 81 165 0.0 3.0 0.00 0.00 0.00 18 1014.6
20260507024021 81 360 1.0 3.0 0.00 0.00 0.00 19 1014.5
20260507023520 81 165 1.0 4.0 0.00 0.00 0.00 18 1014.4
20260507023021 82 360 0.0 4.0 0.00 0.00 0.00 18 1014.6
20260507022020 82 131 0.0 5.0 0.00 0.00 0.00 18 1014.4
20260507021521 82 360 2.0 5.0 0.00 0.00 0.00 18 1014.3
20260507021021 82 360 3.0 6.0 0.00 0.00 0.00 18 1014.4
20260507020021 82 360 6.0 6.0 0.00 0.00 0.00 17 1014.4
20260507015520 83 360 1.0 6.0 0.00 0.00 0.00 17 1014.0
20260507015020 83 360 4.0 7.0 0.00 0.00 0.00 17 1013.9
20260507014520 83 360 2.0 7.0 0.00 0.00 0.00 17 1013.9
20260507014021 83 360 3.0 6.0 0.00 0.00 0.00 17 1013.9
20260507013521 83 360 2.0 5.0 0.00 0.00 0.00 17 1013.9
20260507013020 83 360 0.0 5.0 0.00 0.00 0.00 17 1013.8
20260507012020 83 360 3.0 9.0 0.00 0.00 0.00 17 1013.9
20260507011020 84 360 5.0 8.0 0.00 0.00 0.00 17 1013.8
20260507010521 84 360 5.0 8.0 0.00 0.00 0.00 17 1013.8
20260507005520 84 360 3.0 9.0 0.00 0.00 0.00 17 1013.9
20260507004020 84 360 1.0 8.0 0.00 0.00 0.00 17 1014.1
20260507003520 84 360 3.0 8.0 0.00 0.00 0.00 17 1014.1
20260507003020 84 360 3.0 8.0 0.00 0.00 0.00 17 1014.0
20260507002521 84 360 7.0 10.0 0.00 0.00 0.00 17 1014.0
20260507002020 84 360 2.0 10.0 0.00 0.00 0.00 17 1014.0
20260507000521 84 360 2.0 8.0 0.00 0.00 0.00 17 1014.0
20260506235521 83 360 2.0 7.0 0.00 0.00 0.00 17 1013.9
20260506235020 84 360 2.0 7.0 0.00 0.00 0.00 16 1014.0
20260506234520 84 360 6.0 6.0 0.00 0.00 0.00 17 1013.9
20260506234020 83 139 0.0 8.0 0.00 0.00 0.00 17 1013.9
20260506233520 83 360 2.0 8.0 0.00 0.00 0.00 17 1014.1
20260506233020 83 117 3.0 7.0 0.00 0.00 0.00 17 1014.1
20260506232020 83 190 2.0 9.0 0.00 0.00 0.00 18 1014.3
20260506231520 84 360 1.0 9.0 0.00 0.00 0.00 17 1014.5
20260506231021 84 100 2.0 8.0 0.00 0.00 0.00 18 1014.5
20260506230521 83 360 0.0 8.0 0.00 0.00 0.00 18 1014.5
20260506225520 84 360 2.0 9.0 0.00 0.00 0.00 17 1014.6
20260506223520 84 360 2.0 8.0 0.00 0.00 0.00 18 1014.9
20260506223020 83 46 2.0 10.0 0.00 0.00 0.00 17 1014.8
20260506222520 84 360 3.0 11.0 0.00 0.00 0.00 18 1015.0
20260506222020 83 86 9.0 11.0 0.00 0.00 0.00 18 1014.9
20260506221520 84 360 1.0 11.0 0.00 0.00 0.00 18 1015.1
20260506221020 83 360 5.0 13.0 0.00 0.00 0.00 18 1015.0
20260506220521 84 360 6.0 13.0 0.00 0.00 0.00 18 1015.2
20260506220020 84 360 3.0 8.0 0.00 0.00 0.00 18 1015.3
20260506215020 84 99 8.0 10.0 0.00 0.00 0.00 17 1015.6
20260506214520 84 360 3.0 10.0 0.00 0.00 0.00 19 1015.6
20260506213521 83 360 2.0 10.0 0.00 0.00 0.00 19 1015.8
20260506213021 82 360 4.0 8.0 0.00 0.00 0.00 19 1015.7
20260506212520 82 117 4.0 8.0 0.00 0.00 0.00 19 1015.9
20260506212020 83 360 2.0 7.0 0.00 0.00 0.00 19 1016.0
20260506211520 83 65 7.0 10.0 0.00 0.00 0.00 19 1016.1
20260506211020 83 360 6.0 14.0 0.00 0.00 0.00 18 1016.1
20260506210520 83 92 7.0 14.0 0.00 0.00 0.00 19 1016.0
20260506205520 84 360 7.0 11.0 0.00 0.00 0.00 19 1016.3
20260506205020 83 360 6.0 11.0 0.00 0.00 0.00 18 1016.4
20260506204020 83 96 5.0 8.0 0.00 0.00 0.00 20 1016.4
20260506203520 83 360 3.0 10.0 0.00 0.00 0.00 19 1016.5
20260506203020 83 360 4.0 10.0 0.00 0.00 0.00 19 1016.5
20260506202520 81 360 2.0 8.0 0.00 0.00 0.00 20 1016.4
20260506201520 82 85 6.0 9.0 0.00 0.00 0.00 19 1016.6
20260506201020 82 360 5.0 11.0 0.00 0.00 0.00 19 1016.5
20260506200520 82 360 6.0 11.0 0.00 0.00 0.00 20 1016.8
20260506200020 81 360 3.0 8.0 0.00 0.00 0.00 20 1016.7
20260506195521 81 71 7.0 8.0 0.00 0.00 0.00 20 1016.7
20260506195020 81 99 7.0 8.0 0.00 0.00 0.00 20 1016.8
20260506194520 82 91 5.0 9.0 0.00 0.00 0.00 20 1017.2
20260506194020 82 71 3.0 9.0 0.00 0.00 0.00 20 1017.1
20260506193520 82 102 4.0 9.0 0.00 0.00 0.00 20 1017.3
20260506193020 81 360 4.0 8.0 0.00 0.00 0.00 20 1017.1
20260506192520 80 69 5.0 7.0 0.00 0.00 0.00 21 1017.1
20260506192020 80 103 0.0 7.0 0.00 0.00 0.00 21 1017.2
20260506191520 80 360 1.0 7.0 0.00 0.00 0.00 21 1017.4
20260506190520 80 63 2.0 8.0 0.00 0.00 0.00 20 1017.4
20260506190020 80 103 3.0 7.0 0.00 0.00 0.00 21 1017.5
20260506185520 79 360 7.0 7.0 0.00 0.00 0.00 22 1017.6
20260506185020 78 10 3.0 7.0 0.00 0.00 0.00 22 1017.6
20260506184520 78 186 4.0 7.0 0.00 0.00 0.00 22 1017.6
20260506184020 78 360 2.0 7.0 0.00 0.00 0.00 22 1017.7
20260506183020 78 360 4.0 8.0 0.00 0.00 0.00 22 1017.8
20260506182520 77 96 2.0 8.0 0.00 0.00 0.00 23 1017.7
20260506182020 77 44 6.0 8.0 0.00 0.00 0.00 23 1017.6
20260506181521 78 94 3.0 8.0 0.00 0.00 0.00 22 1017.7
20260506181020 76 41 3.0 8.0 0.00 0.00 0.00 23 1017.5
20260506180519 76 360 4.0 8.0 0.00 0.00 0.00 24 1017.6
20260506180019 77 360 3.0 13.0 0.00 0.00 0.00 23 1017.6
20260506175019 76 84 5.0 8.0 0.00 0.00 0.00 25 1017.8
20260506174520 76 101 3.0 11.0 0.00 0.00 0.00 24 1017.7
20260506174020 76 103 2.0 11.0 0.00 0.00 0.00 24 1017.7
20260506173020 75 100 3.0 11.0 0.00 0.00 0.00 25 1017.7
20260506172520 75 360 4.0 11.0 0.00 0.00 0.00 25 1017.7
20260506172020 75 91 6.0 10.0 0.00 0.00 0.00 25 1017.6
20260506171520 74 88 10.0 10.0 0.00 0.00 0.00 25 1017.5
20260506171020 75 25 6.0 9.0 0.00 0.00 0.00 25 1017.7
20260506170520 74 360 4.0 8.0 0.00 0.00 0.00 25 1017.3
20260506170020 73 360 4.0 8.0 0.00 0.00 0.00 26 1017.4
20260506165519 73 360 4.0 10.0 0.00 0.00 0.00 27 1017.5
20260506165020 73 80 5.0 10.0 0.00 0.00 0.00 27 1017.6
20260506164520 73 360 1.0 7.0 0.00 0.00 0.00 26 1017.5